www.pogodaiklimat.ru
ПОГОДА в Аякагитме

Архив погоды в Аякагитме (Бухарская область, Узбекистан)

Время
и дата
03:20 21.02
03:30 21.02
03:40 21.02
03:50 21.02
04:00 21.02
04:10 21.02
04:20 21.02
04:30 21.02
04:40 21.02
04:50 21.02
05:00 21.02
05:10 21.02
05:20 21.02
05:30 21.02
05:40 21.02
05:50 21.02
06:00 21.02
06:10 21.02
06:20 21.02
06:30 21.02
06:40 21.02
06:50 21.02
07:00 21.02
07:20 21.02
07:30 21.02
07:40 21.02
07:50 21.02
08:00 21.02
08:10 21.02
08:20 21.02
08:40 21.02
08:50 21.02
09:00 21.02
09:10 21.02
11:50 21.02
14:40 21.02
15:10 21.02
15:50 21.02
17:30 21.02
17:40 21.02
17:50 21.02
18:00 21.02
18:10 21.02
18:20 21.02
18:30 21.02
18:40 21.02
18:50 21.02
19:00 21.02
19:10 21.02
19:20 21.02
19:30 21.02
19:40 21.02
19:50 21.02
20:00 21.02
20:10 21.02
20:20 21.02
20:30 21.02
20:40 21.02
20:50 21.02
21:00 21.02
21:10 21.02
21:20 21.02
21:30 21.02
21:40 21.02
21:50 21.02
22:00 21.02
05:00 26.05
05:10 26.05
05:20 26.05
05:30 26.05
05:40 26.05
05:50 26.05
06:00 26.05
06:10 26.05
06:20 26.05
06:30 26.05
06:40 26.05
06:50 26.05
07:00 26.05
07:10 26.05
07:20 26.05
07:30 26.05
07:40 26.05
07:50 26.05
08:00 26.05
08:10 26.05
08:20 26.05
08:30 26.05
08:40 26.05
08:50 26.05
09:00 26.05
09:10 26.05
09:20 26.05
09:30 26.05
09:40 26.05
09:50 26.05
10:00 26.05
10:10 26.05
10:20 26.05
10:30 26.05
10:40 26.05
10:50 26.05
11:00 26.05
11:10 26.05
11:20 26.05
11:30 26.05
11:40 26.05
11:50 26.05
12:00 26.05
12:10 26.05
12:20 26.05
12:30 26.05
12:40 26.05
12:50 26.05
13:00 26.05
13:10 26.05
13:20 26.05
13:30 26.05
13:40 26.05
13:50 26.05
14:00 26.05
14:10 26.05
14:20 26.05
14:40 26.05
14:50 26.05
15:10 26.05
15:20 26.05
15:30 26.05
15:40 26.05
15:50 26.05
16:00 26.05
16:10 26.05
16:20 26.05
16:40 26.05
17:00 26.05
17:10 26.05
17:20 26.05
17:30 26.05
17:40 26.05
17:50 26.05
18:00 26.05
18:10 26.05
18:20 26.05
18:30 26.05
Ветер
(напр.,м/с)
Видимость Явления Солнечная радиация
(Вт/м2)
Т
(С)
Тd
(С)
f
(%)
Тe
(С)
Тes
(С)
Комфортность P
(гПа)
Po
(гПа)
Тmin
(С)
Tmax
(С)
R
(мм)
ЮВ 1.9
{2.2}
-9.0 -9.0 100 -13 -13 1027.7 1001.5 -9.0 -9.2
Ю 1.4
{1.8}
-9.0 -9.0 100 -12 -12 1027.6 1001.4 -9.0 -9.0
Ю 1.2
{1.6}
-9.2 -9.2 100 -12 -12 1027.5 1001.3 -9.0 -9.1
Ю 1.6
{1.8}
-9.3 -9.3 100 -13 -13 1027.5 1001.3 -9.2 -9.4
ЮЗ 1.1
{1.5}
-9.2 -9.2 100 -12 -12 1027.4 1001.2 -9.2 -9.3
З 1.1
{1.5}
-8.8 -8.8 100 -12 -12 1027.4 1001.2 -8.8 -9.2
З 0.6
{0.9}
-9.2 -9.2 100 -10 -10 1027.3 1001.1 -8.8 -9.2
СЗ 0.5
{1.2}
-9.5 -9.5 100 -10 -10 1027.4 1001.2 -9.2 -9.5
С 0.2
{0.8}
-10.0 -10.0 100 -8 -8 1027.3 1001.1 -9.5 -10.0
СЗ 1.0
{2.0}
-9.9 -9.9 100 -12 -12 1027.3 1001.1 -9.9 -10.1
С 1.8
{2.2}
-9.5 -9.5 100 -14 -14 1027.3 1001.1 -9.5 -9.9
С 2.0
{2.4}
-9.6 -9.6 100 -14 -14 1027.3 1001.1 -9.5 -9.6
С 1.8
{2.4}
-9.5 -9.5 100 -14 -14 1027.3 1001.1 -9.5 -9.6
С 1.8
{2.5}
-9.7 -9.7 100 -14 -14 1027.3 1001.1 -9.5 -9.7
С 2.4
{2.9}
-10.0 -10.0 100 -15 -15 1027.4 1001.2 -9.7 -10.0
С 2.2
{2.8}
-10.2 -10.2 100 -15 -15 1027.4 1001.2 -10.0 -10.2
С 1.9
{2.4}
-10.5 -10.5 100 -15 -15 1027.5 1001.3 -10.2 -10.5
С 1.6
{2.0}
-10.4 -10.4 100 -14 -14 1027.5 1001.3 -10.4 -10.5
С 1.4
{2.0}
-10.3 -10.3 100 -14 -14 1027.5 1001.3 -10.2 -10.4
СВ 0.7
{1.1}
-10.5 -10.5 100 -12 -12 1027.5 1001.3 -10.3 -10.5
СВ 1.0
{1.3}
-10.6 -10.6 100 -13 -13 1027.5 1001.3 -10.5 -10.6
В 0.8
{1.1}
-10.7 -10.7 100 -12 -12 1027.6 1001.4 -10.6 -10.7
В 0.8
{1.2}
-11.0 -11.0 100 -13 -13 1027.7 1001.5 -10.7 -11.0
СВ 1.3
{1.6}
-10.9 -10.9 100 -14 -14 1027.8 1001.6 -10.9 -11.0
С 1.7
{2.6}
-10.2 -10.2 100 -14 -14 1027.8 1001.6 -10.3 -10.9
С 2.9
{3.4}
-10.2 -10.2 100 -16 -16 1027.8 1001.6 -10.2 -10.2
С 2.5
{3.1}
-10.3 -10.6 98 -16 -16 1027.9 1001.7 -10.2 -10.3
С 2.6
{3.2}
-10.2 -10.6 97 -16 -16 1027.9 1001.7 -10.2 -10.3
СЗ 2.8
{3.8}
-9.9 -10.5 95 -16 -16 1028.0 1001.8 -9.9 -10.2
СЗ 2.2
{3.0}
-9.4 -10.1 94 -14 -14 1028.1 1001.9 -9.4 -9.9
СЗ 1.8
{2.7}
-8.3 -9.5 91 -12 -12 1028.5 1002.3 -8.3 -8.9
СЗ 1.7
{2.8}
-7.7 -8.7 93 -12 -12 1028.5 1002.3 -7.7 -8.3
С 1.6
{2.2}
-7.3 -8.0 95 -11 -11 1028.5 1002.3 -7.3 -7.7
С 1.5
{2.2}
-6.8 -7.4 96 -10 -10 1028.5 1002.3 -6.8 -7.3
ЮВ 1.4
{2.5}
+0.8 -4.8 66 -1 -1 1028.2 1002.0 +1.1 +0.6
ЮЗ 2.4
{5.9}
+2.8 -9.7 39 0 0 1027.0 1000.8 +2.9 +2.5
Ю 2.9
{4.6}
+2.9 -8.0 45 -0 0 1027.0 1000.8 +3.0 +2.6
Ю 2.7
{4.8}
+2.9 -9.2 40 0 0 1026.9 1000.7 +3.2 +2.9
Ю 3.7
{5.4}
+2.1 -10.4 39 -2 -2 1027.2 1001.0 +2.2 +2.0
Ю 3.6
{4.8}
+2.0 -10.5 39 -2 -2 1027.2 1001.0 +2.1 +1.9
Ю 3.8
{5.2}
+1.7 -11.0 38 -2 -2 1027.2 1001.0 +2.0 +1.7
Ю 3.5
{4.5}
+1.4 -10.7 40 -2 -2 1027.3 1001.1 +1.7 +1.4
Ю 3.2
{4.2}
+1.0 -10.0 44 -3 -3 1027.3 1001.1 +1.4 +1.0
Ю 3.2
{3.7}
+0.6 -10.2 44 -3 -3 1027.3 1001.1 +1.0 +0.6
Ю 3.2
{3.5}
-0.1 -10.1 47 -4 -4 1027.4 1001.2 +0.6 0.0
Ю 2.9
{3.2}
-0.6 -9.6 51 -5 -5 1027.5 1001.3 -0.1 -0.6
Ю 2.9
{3.3}
-1.2 -9.2 54 -5 -5 1027.5 1001.3 -0.6 -1.2
Ю 3.1
{3.6}
-1.4 -8.5 58 -6 -6 1027.6 1001.4 -1.2 -1.4
Ю 3.1
{3.7}
-1.3 -8.6 57 -6 -6 1027.7 1001.5 -1.3 -1.4
Ю 3.0
{3.6}
-1.5 -8.2 60 -6 -6 1027.8 1001.6 -1.3 -1.5
Ю 3.1
{3.7}
-1.9 -7.6 65 -7 -7 1027.9 1001.7 -1.5 -1.9
ЮЗ 3.9
{4.2}
-1.7 -7.2 66 -7 -7 1028.1 1001.9 -1.7 -1.9
ЮЗ 3.7
{4.0}
-2.0 -6.9 69 -7 -7 1028.1 1001.9 -1.7 -2.0
Ю 3.0
{3.8}
-2.5 -6.4 74 -7 -7 1028.1 1001.9 -2.0 -2.5
Ю 2.8
{3.4}
-2.6 -6.6 74 -7 -7 1028.0 1001.8 -2.5 -2.6
Ю 3.1
{3.5}
-2.4 -6.8 72 -7 -7 1028.0 1001.8 -2.4 -2.6
Ю 3.2
{4.0}
-2.1 -7.4 67 -7 -7 1028.1 1001.9 -2.1 -2.4
ЮЗ 3.5
{4.0}
-1.8 -7.7 64 -7 -7 1028.1 1001.9 -1.8 -2.1
ЮЗ 3.4
{4.1}
-1.6 -8.0 62 -6 -6 1028.1 1001.9 -1.6 -1.8
ЮЗ 3.1
{3.9}
-1.9 -7.3 66 -7 -7 1028.0 1001.8 -1.6 -1.8
Ю 3.3
{3.9}
-1.8 -7.3 66 -7 -7 1028.0 1001.8 -1.8 -1.9
Ю 3.3
{4.0}
-1.7 -7.3 65 -7 -7 1028.0 1001.8 -1.6 -1.8
ЮЗ 2.7
{3.4}
-1.8 -7.0 68 -6 -6 1028.0 1001.8 -1.7 -1.8
ЮЗ 3.0
{3.8}
-1.9 -7.3 66 -7 -7 1028.1 1001.9 -1.8 -1.9
ЮЗ 3.1
{3.9}
-2.0 -7.0 69 -7 -7 1028.1 1001.9 -1.9 -2.0
ЮЗ 2.7
{3.3}
-2.1 -6.8 70 -7 -7 1027.9 1001.7 -2.0 -2.1
СВ 6.4
{8.4}
+9.5 -4.7 36 +6 +6 1025.1 999.0 +9.6 +9.5
СВ 6.5
{8.6}
+9.4 -4.7 37 +6 +6 1025.3 999.2 +9.5 +9.5
СВ 6.8
{8.6}
+9.4 -4.6 37 +6 +6 1025.2 999.1 +9.4 +9.4
СВ 6.9
{9.3}
+9.4 -4.5 37 +6 +6 1025.1 999.0 +9.4 +9.4
СВ 7.1
{9.7}
+9.5 -4.4 37 +6 +6 1025.1 999.0 +9.5 +9.4
СВ 7.3
{9.3}
+9.6 -4.3 37 +6 +6 1025.1 999.0 +9.6 +9.5
СВ 7.8
{10.6}
+9.9 -4.2 37 +7 +7 1025.2 999.1 +9.9 +9.6
СВ 8.3
{11.8}
+10.3 -4.1 36 +7 +7 1025.2 999.1 +10.2 +9.9
СВ 8.7
{12.1}
+10.6 -4.1 36 +7 +7 1025.3 999.2 +10.6 +10.3
СВ 9.6
{12.0}
+10.9 -4.3 34 +7 +7 1025.5 999.3 +10.9 +10.6
СВ 10.0
{13.6}
+11.2 -4.6 33 +8 +8 1025.6 999.4 +11.2 +10.9
СВ 10.2
{12.8}
+11.4 -4.8 32 +8 +8 1025.7 999.5 +11.4 +11.2
СВ 10.2
{14.0}
+11.7 -4.9 31 +8 +8 1025.7 999.5 +11.7 +11.3
СВ 10.9
{14.4}
+11.7 -5.6 29 +8 +8 1025.7 999.5 +11.7 +11.6
СВ 11.2
{14.1}
+12.1 -5.7 28 +9 +9 1025.7 999.5 +12.2 +11.7
СВ 10.9
{14.1}
+12.3 -6.4 26 +9 +9 1025.7 999.5 +12.3 +12.0
СВ 11.0
{14.2}
+12.4 -6.3 26 +9 +9 1025.8 999.6 +12.5 +12.3
СВ 11.6
{14.9}
+12.5 -6.9 25 +9 +9 1025.9 999.7 +12.6 +12.4
СВ 10.9
{13.4}
+12.9 -7.1 24 +10 +10 1025.9 999.7 +13.0 +12.5
СВ 11.1
{14.1}
+13.0 -7.0 24 +10 +10 1025.9 999.7 +13.1 +12.9
СВ 11.1
{14.6}
+13.3 -7.3 23 +11 +11 1025.9 999.7 +13.3 +13.0
СВ 11.7
{15.0}
+13.6 -7.9 22 +11 +11 1025.8 999.6 +13.6 +13.3
СВ 10.9
{13.8}
+14.1 -7.8 21 +12 +12 1025.8 999.6 +14.1 +13.6
СВ 11.1
{14.0}
+14.2 -8.2 20 +12 +12 1025.8 999.6 +14.2 +13.8
СВ 11.0
{14.3}
+14.5 -8.3 20 +12 +12 1025.9 999.7 +14.6 +14.2
СВ 10.5
{13.9}
+14.8 -8.5 19 +13 +13 1025.9 999.7 +14.9 +14.4
СВ 11.3
{13.7}
+14.9 -9.3 18 +13 +13 1025.8 999.6 +14.9 +14.5
СВ 11.0
{14.2}
+15.3 -9.5 17 +13 +13 1025.8 999.6 +15.3 +14.9
СВ 10.5
{13.7}
+15.7 -9.6 17 +14 +14 1025.9 999.7 +15.8 +15.3
СВ 11.1
{14.3}
+15.7 -10.3 16 +14 +14 1025.8 999.6 +15.8 +15.5
СВ 10.8
{14.4}
+16.1 -10.8 15 +14 +14 1025.8 999.6 +16.1 +15.6
СВ 10.9
{14.4}
+16.2 -10.7 15 +14 +14 1025.8 999.6 +16.7 +16.1
СВ 10.4
{13.9}
+16.9 -12.1 13 +15 +15 1025.8 999.6 +17.0 +16.2
СВ 11.0
{14.6}
+17.0 -12.0 13 +15 +15 1025.8 999.6 +17.1 +16.6
СВ 10.5
{14.2}
+17.7 -12.3 12 +16 +16 1025.8 999.6 +17.7 +16.9
СВ 10.7
{14.2}
+17.5 -12.0 12 +16 +16 1025.8 999.6 +17.7 +17.3
СВ 10.8
{15.1}
+17.9 -12.0 12 +17 +17 1025.7 999.5 +18.1 +17.5
СВ 10.9
{14.5}
+18.4 -11.9 12 +17 +17 1025.6 999.4 +18.3 +17.8
СВ 10.0
{13.7}
+18.2 -12.1 12 +17 +17 1025.6 999.4 +19.1 +18.1
СВ 10.8
{14.8}
+18.8 -11.1 12 +17 +17 1025.5 999.3 +18.9 +18.2
СВ 10.2
{14.7}
+19.2 -11.2 12 +18 +18 1025.3 999.2 +19.1 +18.7
СВ 10.8
{14.2}
+19.3 -11.5 11 +18 +18 1025.2 999.1 +19.5 +19.0
СВ 10.9
{14.3}
+19.4 -9.9 13 +18 +18 1025.2 999.1 +19.5 +19.1
СВ 10.6
{14.2}
+19.5 -10.3 12 +18 +18 1025.1 999.0 +19.6 +19.2
СВ 10.4
{15.4}
+19.9 -10.3 12 +19 +19 1024.9 998.8 +19.9 +19.5
СВ 10.9
{14.6}
+20.2 -9.6 12 +19 +19 1024.9 998.8 +20.5 +19.9
СВ 10.3
{15.4}
+20.3 -10.3 12 +19 +19 1024.8 998.7 +20.5 +19.8
СВ 10.6
{15.2}
+20.2 -9.8 12 +19 +19 1024.7 998.6 +20.6 +20.1
СВ 10.7
{15.1}
+20.5 -9.4 12 +19 +19 1024.6 998.5 +20.8 +20.2
СВ 11.1
{14.2}
+21.0 -9.3 12 +19 +19 1024.5 998.4 +21.0 +20.5
СВ 10.0
{13.0}
+21.5 -9.4 12 +20 +20 1024.4 998.3 +21.7 +20.7
СВ 10.0
{15.2}
+21.8 -9.2 12 +20 +20 1024.3 998.2 +21.9 +21.2
СВ 10.3
{14.7}
+22.1 -9.3 11 +20 +20 1024.2 998.1 +22.6 +21.6
СВ 10.5
{14.4}
+22.0 -8.7 12 +20 +20 1024.2 998.1 +22.1 +21.6
СВ 9.2
{14.0}
+22.0 -8.5 12 +20 +20 1023.9 997.8 +22.3 +21.8
СВ 10.1
{14.2}
+21.8 -9.2 12 +20 +20 1023.9 997.8 +22.3 +21.8
СВ 10.1
{13.9}
+22.5 -9.1 11 +20 +20 1023.7 997.6 +22.6 +21.8
СВ 10.5
{14.3}
+22.6 -9.0 11 +20 +20 1023.5 997.4 +22.7 +22.4
СВ 9.8
{13.6}
+22.6 -9.2 11 +20 +20 1023.4 997.3 +23.1 +22.6
СВ 10.9
{16.1}
+22.9 -9.1 11 +21 +21 комфорт 1023.1 997.0 +23.4 +22.9
СВ 9.6
{13.9}
+23.2 -9.3 11 +21 +21 комфорт 1023.1 997.0 +23.4 +22.8
СВ 9.2
{13.3}
+23.0 -9.0 11 +21 +21 комфорт 1023.2 997.1 +23.2 +22.8
СВ 9.3
{12.3}
+23.3 -8.9 11 +21 +21 комфорт 1023.0 996.9 +23.6 +23.0
СВ 9.4
{12.5}
+23.7 -8.9 11 +21 +21 комфорт 1022.9 996.8 +23.8 +23.3
СВ 9.4
{13.6}
+23.5 -8.7 11 +21 +21 комфорт 1022.7 996.6 +23.8 +23.3
СВ 8.9
{13.8}
+23.3 -8.4 11 +21 +21 комфорт 1022.7 996.6 +23.8 +23.1
СВ 9.6
{13.2}
+23.5 -8.7 11 +21 +21 комфорт 1022.7 996.6 +23.5 +23.1
СВ 9.1
{12.6}
+23.6 -8.7 11 +21 +21 комфорт 1022.5 996.4 +23.6 +23.2
СВ 9.5
{12.8}
+23.8 -9.2 10 +21 +21 комфорт 1022.4 996.3 +23.9 +23.7
СВ 8.6
{12.2}
+23.9 -9.3 10 +21 +21 комфорт 1022.4 996.3 +23.9 +23.6
СВ 9.2
{12.8}
+23.9 -9.7 10 +21 +21 комфорт 1022.3 996.2 +24.2 +23.7
СВ 9.1
{12.8}
+23.8 -10.3 10 +21 +21 комфорт 1022.1 996.0 +24.1 +23.8
СВ 10.3
{13.3}
+23.5 -10.6 9 +21 +21 комфорт 1022.0 995.9 +23.8 +23.4
СВ 9.2
{12.9}
+23.5 -10.4 10 +21 +21 комфорт 1021.9 995.8 +23.6 +23.5
СВ 9.3
{13.1}
+22.9 -11.6 9 +20 +20 1021.9 995.8 +23.7 +23.0
СВ 8.8
{11.5}
+22.9 -11.3 9 +20 +20 1021.9 995.8 +22.9 +22.7
СВ 8.9
{11.9}
+23.1 -11.3 9 +20 +20 1021.9 995.8 +23.3 +22.9
СВ 9.3
{12.6}
+22.8 -11.5 9 +20 +20 1021.8 995.7 +23.1 +22.8
Местоположение метеостанции Аякагитма (Бухарская область, Узбекистан): широта 40.77 долгота 64.52 высота над уровнем моря 0 м.
В архиве по умолчанию представлена погода в Аякагитме за последние 1-2 суток. Обновление информации о фактической погоде в базе происходит ежечасно! Архивные данные за месяц целиком и за предыдущие месяцы Вы можете получить, выбрав интересующий диапазон дат из раскрывающегося списка и нажав кнопку "Ввод!".
*Определитесь, кто Вы:
Внимание! Время в таблицах - местное (без учета летнего времени). Для получения всемирного времени необходимо вычесть поправку, которая равна 5 ч.
Смотрите также архив погоды на ближайших метеорологических станциях:
Партнеры нашего сайта:      
Пояснения к столбцам:
  • Ветер - указаны скорость ветра в м/с - средняя за 10 мин, порывы в срок и между сроками (в фигурных скобках) и направление, откуда дует ветер: С - северный,
  • СВ - северо-восточный, В - восточный, ЮВ - юго-восточный, Ю - южный, ЮЗ - юго-западный, З - западный, СЗ - северо-западный.
  • Видимость - горизонтальная дальность видимости в метрах или километрах. При видимости от 1 до 10 км при отсутствии осадков обычно наблюдается дымка, при ухудшении видимости до 1 км и менее - туман. В сухую погоду видимость может ухудшаться дымом, пылью или мглою.
  • Явления - указаны атмосферные явления, наблюдавшиеся в срок или в последний час перед сроком.
  • Солнечная радиация - мощность потока солнечного излучения на поверхность земли и предметов в Вт/м2.
  • T - Температура воздуха - температура, измеренная на высоте 2 м над землей.
  • Td - Температура точки росы - температура, при понижении до которой содержащийся в воздухе водяной пар достигнет насыщения.
  • f - Относительная влажность воздуха - влажноcть воздуха, измеренная на высоте 2 м над землей.
  • Te - Эффективная температура - температура, которую ощущает одетый по сезону человек в тени. Характеристика душности погоды. При расчете учитывается влияние влажности воздуха и скорости ветра на теплоощущения человека.
  • Tes - Эффективная температура на солнце - температура, которую ощущает человек, с поправкой на солнечный нагрев. Характеристика знойности погоды. Зависит от высоты солнца над горизонтом, облачности и скорости ветра. Ночью, в пасмурную погоду, а также при ветре 12 м/с и более поправка равна нулю.
  • P - Атмосферное давление - приведенное к уровню моря атмосферное давление.
  • Po - Атмосферное давление - измеренное на уровне метеостанции атмосферное давление.
  • Tmin - Минимальная температура - минимум температуры воздуха на высоте 2 м над землей.
  • Tmax - Максимальная температура - максимум температуры воздуха на высоте 2 м над землей.
  • R - Количество осадков - Количество выпавших осадков за период времени, мм. При наведении курсора мыши на число - период времени, за который выпало указанное количество осадков.